Location: Villingen
(48.0639°N, 8.4609°E)
Time: 08:57:36
(UTC+01:00)

ISS - Pass Details

Date: 22 March 2017
Orbit: 401 x 407 km, 51.6° (Epoch: 25 November)

Event Time Altitude Azimuth Distance (km) Brightness Sun altitude
Exits shadow 03:59:48 20° 124° (ESE) 1,048 -1.5 -23.9°
Drops below altitude 10° 04:00:59 10° 121° (ESE) 1,516 -0.6 -23.8°
Enters shadow 05:02:28 -58° 310° (NW) 11,250 3.4 -14.4°
